カタログに戻る

STARLINK-3073

運用中通信VLEO
NORAD 49135·PAYLOAD·🇺🇸 United States

打ち上げ Sep 14, 2021 から Vandenberg Space Force Base

Loading…

次のパス (今後24時間)

TLE

最新Source: CelesTrak SupGP

元期: Sep 14, 2026, 20:48 UTC

1 49135C 21082F   26257.86715278 -.00039677  00000+0 -33247-2 0  2572
2 49135  70.0003 137.4563 0002974 266.5680 350.7098 14.98355143    14

AllMySatでSTARLINK-3073をリアルタイム追跡

Download on the App Store